SP6PGH-13 Weather Reports


time (UTC)temp
C
wind
direction
speed
KPH
gust
KPH
rain 1hr
cm
rain 24hr
cm
rain mn
cm
humidity
%
barometer
mb
20260504081126 21 264 3.2 11.3 0.00 0.00 0.00 39 999.8
20260504045611 12 114 3.2 6.4 0.00 0.00 0.00 61 999.4
20260504044110 12 102 3.2 6.4 0.00 0.00 0.00 60 999.3
20260504042609 11 120 3.2 6.4 0.00 0.00 0.00 61 999.4
20260504041108 11 102 0.0 0.0 0.00 0.00 0.00 65 999.4
20260504035607 10 102 0.0 0.0 0.00 0.00 0.00 67 999.4
20260504034106 9 282 0.0 0.0 0.00 0.00 0.00 70 999.4
20260504032605 10 282 0.0 0.0 0.00 0.00 0.00 66 999.2
20260504031104 10 336 0.0 3.2 0.00 0.00 0.00 64 999.1
20260504025603 11 106 3.2 6.4 0.00 0.00 0.00 60 998.7
20260504024102 11 132 3.2 6.4 0.00 0.00 0.00 60 998.7
20260504022601 12 95 4.8 8.0 0.00 0.00 0.00 58 998.6
20260504021100 12 90 4.8 9.7 0.00 0.00 0.00 58 998.7
20260504015559 12 94 1.6 6.4 0.00 0.00 0.00 56 998.7
20260504014058 13 96 3.2 8.0 0.00 0.00 0.00 54 998.6
20260504012557 13 88 3.2 6.4 0.00 0.00 0.00 53 998.5
20260504011056 13 108 1.6 6.4 0.00 0.00 0.00 55 998.6
20260504005555 13 94 1.6 4.8 0.00 0.00 0.00 56 998.6
20260504004054 12 64 1.6 4.8 0.00 0.00 0.00 59 998.7
20260504002553 13 132 3.2 6.4 0.00 0.00 0.00 58 998.8
20260504001052 13 104 3.2 8.0 0.00 0.00 0.00 57 998.8
20260503235551 13 83 3.2 6.4 0.00 0.00 0.00 57 998.8
20260503234050 13 114 1.6 8.0 0.00 0.00 0.00 56 998.9
20260503232549 13 127 3.2 6.4 0.00 0.00 0.00 55 999.0
20260503231048 14 88 1.6 6.4 0.00 0.00 0.00 53 999.1
20260503225547 15 89 1.6 4.8 0.00 0.00 0.00 51 999.3
20260503224046 15 126 1.6 6.4 0.00 0.00 0.00 49 999.2
20260503222545 15 128 0.0 3.2 0.00 0.00 0.00 49 999.4
20260503221044 16 127 0.0 3.2 0.00 0.00 0.00 47 999.4
20260503215543 16 96 0.0 4.8 0.00 0.00 0.00 47 999.5
20260503214041 16 138 0.0 3.2 0.00 0.00 0.00 45 999.4
20260503212541 17 348 1.6 6.4 0.00 0.00 0.00 44 999.5
20260503211039 17 23 1.6 4.8 0.00 0.00 0.00 44 999.5
20260503205539 17 146 1.6 4.8 0.00 0.00 0.00 44 999.6
20260503204038 17 132 1.6 4.8 0.00 0.00 0.00 43 999.6
20260503202537 18 106 1.6 6.4 0.00 0.00 0.00 42 999.6
20260503201036 18 162 1.6 4.8 0.00 0.00 0.00 42 999.6
20260503195535 18 156 1.6 4.8 0.00 0.00 0.00 42 999.5
20260503194034 18 126 0.0 3.2 0.00 0.00 0.00 42 999.5
20260503192533 18 116 0.0 3.2 0.00 0.00 0.00 40 999.4
20260503191032 19 114 0.0 3.2 0.00 0.00 0.00 38 999.4
20260503185531 20 101 1.6 4.8 0.00 0.00 0.00 37 999.2
20260503184030 20 83 0.0 3.2 0.00 0.00 0.00 35 999.1
20260503182529 21 102 0.0 3.2 0.00 0.00 0.00 35 998.9
20260503181028 21 58 0.0 3.2 0.00 0.00 0.00 33 998.9
20260503175527 22 162 1.6 4.8 0.00 0.00 0.00 31 998.7
20260503174026 23 127 1.6 3.2 0.00 0.00 0.00 29 998.7
20260503172524 24 222 1.6 6.4 0.00 0.00 0.00 27 998.7
20260503171023 25 114 3.2 6.4 0.00 0.00 0.00 27 998.6
20260503131007 26 252 4.8 11.3 0.00 0.00 0.00 23 1000.5